| time (UTC) | temp F | wind direction | speed MPH | gust MPH | rain 1hr in | rain 24hr in | rain mn in | humidity % | barometer mb |
| 20260902090003 | 78 | 144 | 0.0 | 1.0 | 0.00 | 0.00 | 0.00 | 81 | 998.7 |
| 20260902085503 | 78 | 144 | 0.0 | 1.0 | 0.00 | 0.00 | 0.00 | 81 | 998.9 |
| 20260902085003 | 78 | 144 | 0.0 | 2.0 | 0.00 | 0.00 | 0.00 | 81 | 998.6 |
| 20260902084503 | 78 | 146 | 1.0 | 2.0 | 0.00 | 0.00 | 0.00 | 81 | 998.7 |
| 20260902084004 | 78 | 137 | 0.0 | 1.0 | 0.00 | 0.00 | 0.00 | 80 | 998.8 |
| 20260902083504 | 78 | 134 | 0.0 | 2.0 | 0.00 | 0.00 | 0.00 | 80 | 998.8 |
| 20260902083004 | 78 | 146 | 1.0 | 2.0 | 0.00 | 0.00 | 0.00 | 80 | 998.8 |
| 20260902082504 | 78 | 118 | 0.0 | 1.0 | 0.00 | 0.00 | 0.00 | 80 | 998.6 |
| 20260902080503 | 79 | 148 | 1.0 | 2.0 | 0.00 | 0.00 | 0.00 | 79 | 998.6 |
| 20260902080003 | 79 | 128 | 1.0 | 2.0 | 0.00 | 0.00 | 0.00 | 78 | 998.8 |
| 20260902075503 | 79 | 121 | 0.0 | 1.0 | 0.00 | 0.00 | 0.00 | 78 | 998.8 |
| 20260902075003 | 79 | 134 | 1.0 | 2.0 | 0.00 | 0.00 | 0.00 | 78 | 998.9 |
| 20260902074503 | 79 | 140 | 1.0 | 2.0 | 0.00 | 0.00 | 0.00 | 78 | 999.0 |
| 20260902074004 | 80 | 135 | 0.0 | 1.0 | 0.00 | 0.00 | 0.00 | 78 | 998.8 |
| 20260902073504 | 80 | 139 | 1.0 | 2.0 | 0.00 | 0.00 | 0.00 | 78 | 998.8 |
| 20260902073004 | 80 | 154 | 1.0 | 2.0 | 0.00 | 0.00 | 0.00 | 77 | 999.0 |
| 20260902072504 | 80 | 163 | 1.0 | 2.0 | 0.00 | 0.00 | 0.00 | 77 | 998.8 |
| 20260902072004 | 80 | 135 | 0.0 | 1.0 | 0.00 | 0.00 | 0.00 | 77 | 998.8 |
| 20260902071003 | 80 | 128 | 0.0 | 2.0 | 0.00 | 0.00 | 0.00 | 76 | 999.1 |
| 20260902070504 | 80 | 116 | 1.0 | 2.0 | 0.00 | 0.00 | 0.00 | 76 | 999.2 |
| 20260902065503 | 81 | 131 | 1.0 | 2.0 | 0.00 | 0.00 | 0.00 | 75 | 999.1 |
| 20260902064504 | 81 | 115 | 1.0 | 2.0 | 0.00 | 0.00 | 0.00 | 75 | 999.0 |
| 20260902064004 | 81 | 114 | 1.0 | 2.0 | 0.00 | 0.00 | 0.00 | 75 | 999.3 |
| 20260902063504 | 82 | 138 | 1.0 | 1.0 | 0.00 | 0.00 | 0.00 | 75 | 999.1 |
| 20260902062503 | 82 | 134 | 1.0 | 2.0 | 0.00 | 0.00 | 0.00 | 74 | 999.2 |
| 20260902062003 | 82 | 113 | 0.0 | 1.0 | 0.00 | 0.00 | 0.00 | 74 | 999.2 |
| 20260902061503 | 82 | 123 | 1.0 | 1.0 | 0.00 | 0.00 | 0.00 | 74 | 999.2 |
| 20260902061003 | 83 | 136 | 1.0 | 2.0 | 0.00 | 0.00 | 0.00 | 73 | 999.1 |
| 20260902060503 | 83 | 155 | 1.0 | 1.0 | 0.00 | 0.00 | 0.00 | 73 | 999.0 |
| 20260902055004 | 83 | 157 | 1.0 | 3.0 | 0.00 | 0.00 | 0.00 | 71 | 999.0 |
| 20260902054504 | 84 | 159 | 1.0 | 3.0 | 0.00 | 0.00 | 0.00 | 71 | 999.1 |
| 20260902054004 | 84 | 153 | 1.0 | 3.0 | 0.00 | 0.00 | 0.00 | 70 | 999.1 |
| 20260902053503 | 84 | 188 | 1.0 | 5.0 | 0.00 | 0.00 | 0.00 | 70 | 998.9 |
| 20260902053003 | 84 | 176 | 2.0 | 5.0 | 0.00 | 0.00 | 0.00 | 70 | 998.7 |
| 20260902052503 | 84 | 186 | 3.0 | 5.0 | 0.00 | 0.00 | 0.00 | 69 | 999.0 |
| 20260902051503 | 85 | 160 | 2.0 | 7.0 | 0.00 | 0.00 | 0.00 | 68 | 998.8 |
| 20260902051003 | 85 | 168 | 3.0 | 7.0 | 0.00 | 0.00 | 0.00 | 68 | 998.9 |
| 20260902050504 | 84 | 181 | 5.0 | 7.0 | 0.00 | 0.00 | 0.00 | 68 | 998.9 |
| 20260902050007 | 84 | 156 | 2.0 | 5.0 | 0.00 | 0.00 | 0.00 | 67 | 998.8 |
| 20260902045504 | 84 | 186 | 2.0 | 3.0 | 0.00 | 0.00 | 0.00 | 67 | 999.0 |
| 20260902044503 | 85 | 151 | 2.0 | 3.0 | 0.00 | 0.00 | 0.00 | 66 | 999.0 |
| 20260902044003 | 85 | 180 | 2.0 | 3.0 | 0.00 | 0.00 | 0.00 | 66 | 998.9 |
| 20260902043004 | 85 | 163 | 3.0 | 5.0 | 0.00 | 0.00 | 0.00 | 65 | 998.8 |
| 20260902041004 | 86 | 152 | 1.0 | 3.0 | 0.00 | 0.00 | 0.00 | 64 | 998.8 |
| 20260902040503 | 85 | 158 | 2.0 | 2.0 | 0.00 | 0.00 | 0.00 | 64 | 998.9 |
| 20260902040003 | 86 | 145 | 2.0 | 2.0 | 0.00 | 0.00 | 0.00 | 64 | 998.8 |
| 20260902035503 | 86 | 134 | 1.0 | 2.0 | 0.00 | 0.00 | 0.00 | 64 | 998.8 |
| 20260902035003 | 86 | 145 | 2.0 | 3.0 | 0.00 | 0.00 | 0.00 | 63 | 999.0 |
| 20260902034004 | 86 | 155 | 2.0 | 3.0 | 0.00 | 0.00 | 0.00 | 63 | 998.7 |
| 20260902033503 | 86 | 151 | 1.0 | 2.0 | 0.00 | 0.00 | 0.00 | 62 | 998.5 |
| 20260902032504 | 87 | 160 | 1.0 | 2.0 | 0.00 | 0.00 | 0.00 | 61 | 998.5 |
| 20260902032004 | 87 | 174 | 1.0 | 3.0 | 0.00 | 0.00 | 0.00 | 61 | 998.6 |
| 20260902031504 | 87 | 149 | 1.0 | 3.0 | 0.00 | 0.00 | 0.00 | 61 | 998.5 |
| 20260902030503 | 87 | 142 | 1.0 | 1.0 | 0.00 | 0.00 | 0.00 | 60 | 998.3 |
| 20260902030003 | 87 | 129 | 1.0 | 2.0 | 0.00 | 0.00 | 0.00 | 59 | 998.1 |
| 20260902025003 | 88 | 163 | 2.0 | 5.0 | 0.00 | 0.00 | 0.00 | 58 | 997.9 |
| 20260902024503 | 88 | 163 | 2.0 | 5.0 | 0.00 | 0.00 | 0.00 | 58 | 997.7 |
| 20260902024004 | 88 | 143 | 2.0 | 5.0 | 0.00 | 0.00 | 0.00 | 57 | 997.7 |
| 20260902023504 | 88 | 164 | 1.0 | 3.0 | 0.00 | 0.00 | 0.00 | 57 | 997.7 |
| 20260902023004 | 88 | 146 | 1.0 | 3.0 | 0.00 | 0.00 | 0.00 | 57 | 997.6 |
| 20260902022503 | 88 | 140 | 1.0 | 2.0 | 0.00 | 0.00 | 0.00 | 57 | 997.5 |
| 20260902022004 | 88 | 135 | 1.0 | 1.0 | 0.00 | 0.00 | 0.00 | 56 | 997.5 |
| 20260902021504 | 88 | 131 | 0.0 | 2.0 | 0.00 | 0.00 | 0.00 | 56 | 997.4 |
| 20260902020004 | 89 | 205 | 1.0 | 3.0 | 0.00 | 0.00 | 0.00 | 54 | 997.2 |
| 20260902015004 | 89 | 133 | 2.0 | 5.0 | 0.00 | 0.00 | 0.00 | 54 | 997.1 |
| 20260902014503 | 89 | 134 | 2.0 | 3.0 | 0.00 | 0.00 | 0.00 | 53 | 997.1 |
| 20260902014003 | 90 | 163 | 1.0 | 6.0 | 0.00 | 0.00 | 0.00 | 53 | 997.0 |
| 20260902013503 | 90 | 86 | 1.0 | 3.0 | 0.00 | 0.00 | 0.00 | 53 | 997.1 |
| 20260902013004 | 90 | 112 | 1.0 | 3.0 | 0.00 | 0.00 | 0.00 | 52 | 996.9 |
| 20260902012504 | 90 | 179 | 2.0 | 3.0 | 0.00 | 0.00 | 0.00 | 52 | 997.0 |
| 20260902012004 | 91 | 174 | 1.0 | 3.0 | 0.00 | 0.00 | 0.00 | 51 | 996.8 |
| 20260902011504 | 91 | 139 | 1.0 | 2.0 | 0.00 | 0.00 | 0.00 | 51 | 996.5 |
| 20260902011004 | 91 | 144 | 1.0 | 2.0 | 0.00 | 0.00 | 0.00 | 50 | 996.8 |
| 20260902010503 | 91 | 110 | 1.0 | 5.0 | 0.00 | 0.00 | 0.00 | 50 | 996.8 |
| 20260902010004 | 92 | 166 | 1.0 | 3.0 | 0.00 | 0.00 | 0.00 | 49 | 996.7 |
| 20260902005004 | 92 | 115 | 1.0 | 2.0 | 0.00 | 0.00 | 0.00 | 49 | 996.6 |
| 20260902004503 | 92 | 181 | 1.0 | 2.0 | 0.00 | 0.00 | 0.00 | 48 | 996.9 |
| 20260902004003 | 93 | 108 | 1.0 | 2.0 | 0.00 | 0.00 | 0.00 | 48 | 997.0 |
| 20260902003503 | 93 | 157 | 1.0 | 2.0 | 0.00 | 0.00 | 0.00 | 48 | 996.8 |
| 20260902003003 | 93 | 90 | 0.0 | 3.0 | 0.00 | 0.00 | 0.00 | 48 | 997.2 |
| 20260902002503 | 93 | 105 | 2.0 | 5.0 | 0.00 | 0.00 | 0.00 | 47 | 996.9 |
| 20260902002003 | 94 | 124 | 2.0 | 6.0 | 0.00 | 0.00 | 0.00 | 47 | 997.0 |
| 20260902001504 | 94 | 120 | 2.0 | 7.0 | 0.00 | 0.00 | 0.00 | 47 | 996.9 |
| 20260902001003 | 94 | 156 | 2.0 | 6.0 | 0.00 | 0.00 | 0.00 | 47 | 997.1 |
| 20260902000504 | 94 | 194 | 3.0 | 6.0 | 0.00 | 0.00 | 0.00 | 47 | 996.9 |
| 20260902000004 | 94 | 79 | 1.0 | 6.0 | 0.00 | 0.00 | 0.00 | 47 | 996.9 |
| 20260901235504 | 95 | 76 | 2.0 | 5.0 | 0.00 | 0.00 | 0.00 | 46 | 996.9 |
| 20260901235004 | 95 | 108 | 2.0 | 5.0 | 0.00 | 0.00 | 0.00 | 45 | 996.7 |
| 20260901234503 | 96 | 117 | 1.0 | 8.0 | 0.00 | 0.00 | 0.00 | 45 | 996.7 |
| 20260901234003 | 96 | 87 | 2.0 | 5.0 | 0.00 | 0.00 | 0.00 | 44 | 996.9 |
| 20260901233003 | 97 | 186 | 2.0 | 6.0 | 0.00 | 0.00 | 0.00 | 44 | 997.0 |
| 20260901232504 | 96 | 128 | 2.0 | 8.0 | 0.00 | 0.00 | 0.00 | 44 | 996.9 |
| 20260901232004 | 97 | 61 | 4.0 | 6.0 | 0.00 | 0.00 | 0.00 | 44 | 996.9 |
| 20260901231504 | 97 | 64 | 4.0 | 8.0 | 0.00 | 0.00 | 0.00 | 44 | 996.7 |
| 20260901231004 | 98 | 85 | 2.0 | 8.0 | 0.00 | 0.00 | 0.00 | 43 | 996.8 |
| 20260901230504 | 98 | 153 | 3.0 | 8.0 | 0.00 | 0.00 | 0.00 | 42 | 996.9 |
| 20260901230004 | 98 | 74 | 2.0 | 5.0 | 0.00 | 0.00 | 0.00 | 43 | 996.8 |
| 20260901225504 | 98 | 76 | 2.0 | 7.0 | 0.00 | 0.00 | 0.00 | 43 | 996.7 |
| 20260901225004 | 97 | 77 | 1.0 | 3.0 | 0.00 | 0.00 | 0.00 | 43 | 996.8 |
| 20260901224504 | 96 | 89 | 2.0 | 5.0 | 0.00 | 0.00 | 0.00 | 45 | 996.9 |
| 20260901224004 | 96 | 122 | 3.0 | 7.0 | 0.00 | 0.00 | 0.00 | 45 | 996.9 |
| 20260901223005 | 98 | 160 | 3.0 | 8.0 | 0.00 | 0.00 | 0.00 | 42 | 996.6 |
| 20260901222504 | 99 | 209 | 4.0 | 7.0 | 0.00 | 0.00 | 0.00 | 42 | 996.9 |
| 20260901222004 | 99 | 72 | 3.0 | 9.0 | 0.00 | 0.00 | 0.00 | 43 | 996.8 |
| 20260901221004 | 100 | 118 | 0.0 | 2.0 | 0.00 | 0.00 | 0.00 | 39 | 997.1 |
| 20260901220505 | 99 | 106 | 1.0 | 3.0 | 0.00 | 0.00 | 0.00 | 40 | 996.8 |
| 20260901220005 | 98 | 182 | 1.0 | 2.0 | 0.00 | 0.00 | 0.00 | 42 | 996.9 |
| 20260901215505 | 97 | 70 | 2.0 | 5.0 | 0.00 | 0.00 | 0.00 | 43 | 996.9 |
| 20260901215005 | 96 | 81 | 2.0 | 3.0 | 0.00 | 0.00 | 0.00 | 44 | 996.9 |
| 20260901214504 | 97 | 91 | 1.0 | 5.0 | 0.00 | 0.00 | 0.00 | 43 | 996.7 |
| 20260901214005 | 98 | 58 | 3.0 | 7.0 | 0.00 | 0.00 | 0.00 | 43 | 997.0 |
| 20260901213505 | 97 | 182 | 3.0 | 10.0 | 0.00 | 0.00 | 0.00 | 44 | 996.9 |
| 20260901213005 | 99 | 86 | 3.0 | 10.0 | 0.00 | 0.00 | 0.00 | 42 | 997.0 |
| 20260901212505 | 100 | 119 | 2.0 | 5.0 | 0.00 | 0.00 | 0.00 | 41 | 997.3 |
| 20260901212005 | 101 | 174 | 2.0 | 5.0 | 0.00 | 0.00 | 0.00 | 41 | 997.2 |
| 20260901210005 | 99 | 185 | 2.0 | 3.0 | 0.00 | 0.00 | 0.00 | 42 | 997.4 |
| 20260901205505 | 98 | 167 | 1.0 | 3.0 | 0.00 | 0.00 | 0.00 | 44 | 997.4 |
| 20260901205005 | 99 | 162 | 3.0 | 5.0 | 0.00 | 0.00 | 0.00 | 43 | 997.7 |
| 20260901204005 | 99 | 110 | 1.0 | 3.0 | 0.00 | 0.00 | 0.00 | 42 | 997.6 |
| 20260901203504 | 98 | 162 | 5.0 | 8.0 | 0.00 | 0.00 | 0.00 | 42 | 997.7 |
| 20260901203005 | 100 | 73 | 2.0 | 5.0 | 0.00 | 0.00 | 0.00 | 41 | 997.9 |
| 20260901202505 | 100 | 127 | 1.0 | 2.0 | 0.00 | 0.00 | 0.00 | 42 | 997.9 |
| 20260901202005 | 100 | 98 | 2.0 | 3.0 | 0.00 | 0.00 | 0.00 | 41 | 998.0 |
| 20260901201505 | 99 | 169 | 1.0 | 6.0 | 0.00 | 0.00 | 0.00 | 43 | 998.1 |
| 20260901201005 | 99 | 173 | 3.0 | 7.0 | 0.00 | 0.00 | 0.00 | 43 | 998.1 |
| 20260901200505 | 98 | 276 | 3.0 | 6.0 | 0.00 | 0.00 | 0.00 | 43 | 998.1 |
| 20260901200004 | 98 | 158 | 2.0 | 9.0 | 0.00 | 0.00 | 0.00 | 43 | 998.1 |
| 20260901195504 | 98 | 197 | 6.0 | 9.0 | 0.00 | 0.00 | 0.00 | 43 | 998.2 |
| 20260901194505 | 98 | 146 | 2.0 | 6.0 | 0.00 | 0.00 | 0.00 | 45 | 998.5 |
| 20260901194005 | 98 | 96 | 2.0 | 6.0 | 0.00 | 0.00 | 0.00 | 45 | 998.3 |
| 20260901193504 | 98 | 78 | 3.0 | 5.0 | 0.00 | 0.00 | 0.00 | 45 | 998.5 |
| 20260901193005 | 99 | 79 | 2.0 | 5.0 | 0.00 | 0.00 | 0.00 | 44 | 998.5 |
| 20260901192505 | 99 | 103 | 2.0 | 3.0 | 0.00 | 0.00 | 0.00 | 44 | 998.7 |
| 20260901192005 | 97 | 178 | 2.0 | 3.0 | 0.00 | 0.00 | 0.00 | 44 | 998.7 |
| 20260901191005 | 97 | 133 | 2.0 | 8.0 | 0.00 | 0.00 | 0.00 | 46 | 999.0 |
| 20260901190505 | 98 | 203 | 4.0 | 7.0 | 0.00 | 0.00 | 0.00 | 45 | 998.9 |
| 20260901190005 | 96 | 119 | 2.0 | 6.0 | 0.00 | 0.00 | 0.00 | 46 | 999.2 |
| 20260901185505 | 96 | 167 | 3.0 | 6.0 | 0.00 | 0.00 | 0.00 | 47 | 999.1 |
| 20260901184504 | 96 | 81 | 1.0 | 3.0 | 0.00 | 0.00 | 0.00 | 46 | 999.1 |
| 20260901184005 | 96 | 168 | 2.0 | 6.0 | 0.00 | 0.00 | 0.00 | 49 | 999.4 |
| 20260901183504 | 97 | 105 | 3.0 | 3.0 | 0.00 | 0.00 | 0.00 | 47 | 999.4 |
| 20260901183005 | 99 | 146 | 2.0 | 3.0 | 0.00 | 0.00 | 0.00 | 46 | 999.5 |
| 20260901182505 | 98 | 118 | 2.0 | 5.0 | 0.00 | 0.00 | 0.00 | 47 | 999.4 |
| 20260901180505 | 96 | 155 | 2.0 | 5.0 | 0.00 | 0.00 | 0.00 | 48 | 999.8 |
| 20260901180005 | 95 | 77 | 1.0 | 6.0 | 0.00 | 0.00 | 0.00 | 49 | 999.8 |
| 20260901175505 | 96 | 85 | 3.0 | 5.0 | 0.00 | 0.00 | 0.00 | 49 | 999.9 |
| 20260901175004 | 96 | 94 | 1.0 | 2.0 | 0.00 | 0.00 | 0.00 | 51 | 1000.2 |
| 20260901174505 | 96 | 131 | 1.0 | 3.0 | 0.00 | 0.00 | 0.00 | 49 | 1000.3 |
| 20260901174007 | 94 | 199 | 2.0 | 3.0 | 0.00 | 0.00 | 0.00 | 50 | 1000.2 |
| 20260901173005 | 95 | 162 | 3.0 | 5.0 | 0.00 | 0.00 | 0.00 | 51 | 1000.5 |
| 20260901172504 | 95 | 160 | 2.0 | 6.0 | 0.00 | 0.00 | 0.00 | 51 | 1000.4 |
| 20260901172005 | 94 | 178 | 3.0 | 5.0 | 0.00 | 0.00 | 0.00 | 52 | 1000.3 |
| 20260901171505 | 94 | 80 | 1.0 | 3.0 | 0.00 | 0.00 | 0.00 | 52 | 1000.4 |
| 20260901170505 | 94 | 153 | 0.0 | 3.0 | 0.00 | 0.00 | 0.00 | 53 | 1000.6 |
| 20260901170005 | 94 | 109 | 1.0 | 2.0 | 0.00 | 0.00 | 0.00 | 53 | 1000.6 |
| 20260901165004 | 94 | 143 | 2.0 | 3.0 | 0.00 | 0.00 | 0.00 | 53 | 1000.7 |
| 20260901164505 | 94 | 104 | 1.0 | 3.0 | 0.00 | 0.00 | 0.00 | 54 | 1000.8 |
| 20260901163505 | 93 | 91 | 1.0 | 2.0 | 0.00 | 0.00 | 0.00 | 55 | 1000.8 |
| 20260901163005 | 93 | 106 | 2.0 | 6.0 | 0.00 | 0.00 | 0.00 | 56 | 1001.1 |
| 20260901162505 | 92 | 83 | 1.0 | 2.0 | 0.00 | 0.00 | 0.00 | 58 | 1001.0 |
| 20260901162004 | 92 | 88 | 1.0 | 3.0 | 0.00 | 0.00 | 0.00 | 56 | 1001.0 |
| 20260901161505 | 93 | 135 | 0.0 | 2.0 | 0.00 | 0.00 | 0.00 | 57 | 1000.9 |
| 20260901160505 | 93 | 170 | 2.0 | 2.0 | 0.00 | 0.00 | 0.00 | 56 | 1001.1 |
| 20260901160005 | 92 | 102 | 1.0 | 1.0 | 0.00 | 0.00 | 0.00 | 56 | 1001.0 |
| 20260901155505 | 91 | 112 | 1.0 | 2.0 | 0.00 | 0.00 | 0.00 | 60 | 1001.2 |
| 20260901155005 | 91 | 185 | 1.0 | 2.0 | 0.00 | 0.00 | 0.00 | 61 | 1001.1 |
| 20260901154505 | 90 | 87 | 1.0 | 2.0 | 0.00 | 0.00 | 0.00 | 62 | 1001.2 |
| 20260901154005 | 90 | 170 | 2.0 | 2.0 | 0.00 | 0.00 | 0.00 | 63 | 1001.0 |
| 20260901153004 | 90 | 100 | 1.0 | 2.0 | 0.00 | 0.00 | 0.00 | 63 | 1000.9 |
| 20260901152505 | 89 | 96 | 1.0 | 2.0 | 0.00 | 0.00 | 0.00 | 65 | 1000.8 |
| 20260901152004 | 89 | 68 | 1.0 | 2.0 | 0.00 | 0.00 | 0.00 | 65 | 1001.0 |
| 20260901151505 | 88 | 103 | 1.0 | 2.0 | 0.00 | 0.00 | 0.00 | 68 | 1001.0 |
| 20260901151004 | 88 | 198 | 1.0 | 2.0 | 0.00 | 0.00 | 0.00 | 68 | 1001.1 |
| 20260901150505 | 86 | 76 | 1.0 | 3.0 | 0.00 | 0.00 | 0.00 | 71 | 1001.0 |
| 20260901150005 | 86 | 212 | 1.0 | 2.0 | 0.00 | 0.00 | 0.00 | 71 | 1001.1 |
| 20260901145005 | 84 | 259 | 2.0 | 2.0 | 0.00 | 0.00 | 0.00 | 76 | 1001.2 |
| 20260901144505 | 84 | 259 | 2.0 | 2.0 | 0.00 | 0.00 | 0.00 | 76 | 1001.1 |
| 20260901144005 | 84 | 259 | 2.0 | 2.0 | 0.00 | 0.00 | 0.00 | 76 | 1001.0 |
| 20260901143505 | 84 | 259 | 2.0 | 2.0 | 0.00 | 0.00 | 0.00 | 76 | 1001.1 |
| 20260901143005 | 84 | 259 | 2.0 | 2.0 | 0.00 | 0.00 | 0.00 | 76 | 1001.2 |
| 20260901142505 | 76 | 136 | 0.0 | 1.0 | 0.00 | 0.00 | 0.00 | 91 | 1001.2 |
| 20260901142005 | 76 | 136 | 0.0 | 1.0 | 0.00 | 0.00 | 0.00 | 91 | 1001.1 |
| 20260901141505 | 76 | 136 | 0.0 | 1.0 | 0.00 | 0.00 | 0.00 | 91 | 1001.3 |
| 20260901141004 | 76 | 136 | 0.0 | 1.0 | 0.00 | 0.00 | 0.00 | 91 | 1001.4 |
| 20260901140505 | 76 | 136 | 0.0 | 1.0 | 0.00 | 0.00 | 0.00 | 91 | 1001.3 |
| 20260901140004 | 76 | 136 | 0.0 | 1.0 | 0.00 | 0.00 | 0.00 | 91 | 1001.3 |
| 20260901135504 | 76 | 136 | 0.0 | 1.0 | 0.00 | 0.00 | 0.00 | 91 | 1001.2 |
| 20260901135005 | 76 | 136 | 0.0 | 1.0 | 0.00 | 0.00 | 0.00 | 91 | 1001.3 |
| 20260901134506 | 76 | 136 | 0.0 | 1.0 | 0.00 | 0.00 | 0.00 | 91 | 1001.1 |
| 20260901134004 | 76 | 136 | 0.0 | 1.0 | 0.00 | 0.00 | 0.00 | 91 | 1001.0 |
| 20260901133504 | 76 | 136 | 0.0 | 1.0 | 0.00 | 0.00 | 0.00 | 91 | 1001.1 |
| 20260901133005 | 76 | 136 | 0.0 | 1.0 | 0.00 | 0.00 | 0.00 | 91 | 1001.1 |
| 20260901132505 | 76 | 136 | 0.0 | 1.0 | 0.00 | 0.00 | 0.00 | 91 | 1000.9 |
| 20260901132005 | 76 | 136 | 0.0 | 1.0 | 0.00 | 0.00 | 0.00 | 91 | 1001.1 |
| 20260901131005 | 76 | 136 | 0.0 | 1.0 | 0.00 | 0.00 | 0.00 | 91 | 1000.7 |
| 20260901130505 | 76 | 136 | 0.0 | 1.0 | 0.00 | 0.00 | 0.00 | 91 | 1000.7 |
| 20260901092004 | 78 | 155 | 2.0 | 6.0 | 0.00 | 0.00 | 0.00 | 84 | 999.9 |
| 20260901091504 | 78 | 254 | 3.0 | 5.0 | 0.00 | 0.00 | 0.00 | 84 | 1000.0 |
| 20260901091003 | 78 | 173 | 2.0 | 3.0 | 0.00 | 0.00 | 0.00 | 84 | 1000.1 |
| 20260901090503 | 78 | 201 | 2.0 | 5.0 | 0.00 | 0.00 | 0.00 | 83 | 999.9 |